Weather History for Faribault, MN

Change the Weather History Date:

Sunday, January 19, 2014

  Actual Average Record
Temperature  
Mean Temperature 30 °F -  
Max Temperature 41 °F 22 °F 46 °F (1981)
Min Temperature 19 °F 1 °F -35 °F (1970)
Degree Days  
Heating Degree Days 35    
Moisture  
Dew Point 20 °F    
Average Humidity 64    
Maximum Humidity 75    
Minimum Humidity 48    
Precipitation  
Precipitation 0.01 in - - ()
Sea Level Pressure  
Sea Level Pressure 29.59 in    
Wind  
Wind Speed 10 mph (WSW)    
Max Wind Speed 16 mph    
Max Gust Speed 22 mph    
Visibility 10 miles    
Events      
Averages and records for this station are not official NWS values.
T = Trace of Precipitation, MM = Missing Value Source: NWS Daily Summary

Daily Weather History Graph

Daily Weather History Graph

Search for Another Location

Airport:

Trip Planner

Search our weather history database for the weather conditions in past years. The results will help you decide how hot, cold, wet, or windy it might be!

Date:

Astronomy

Jan. 19, 2014 Rise Set
Actual Time 7:43 AM CST 5:05 PM CST
Civil Twilight 7:11 AM CST 5:37 PM CST
Nautical Twilight 6:35 AM CST 6:12 PM CST
Astronomical Twilight 6:01 AM CST 6:47 PM CST
Moon 8:53 PM CST (1/19) 9:04 AM CST (1/19)
Length of Visible Light 10h 25m
Length of Day
9h 21m
Waning Gibbous, 89% of the Moon is Illuminated
Jan 19
Waning Gibbous
Jan 23
Last Quarter
Jan 30
New
Feb 6
First Quarter
Feb 14
Full

Hourly Weather History & Observations

Time (CST) Temp. Windchill Dew Point Humidity Pressure Visibility Wind Dir Wind Speed Gust Speed Precip Events Conditions
12:14 AM 19.4 °F 7.9 °F 10.4 °F 68% 29.75 in 10.0 mi SSW 10.4 mph - N/A   Clear
12:34 AM 19.4 °F 9.5 °F 10.4 °F 68% 29.73 in 10.0 mi SSW 8.1 mph - N/A   Clear
12:54 AM 19.4 °F 7.9 °F 12.2 °F 74% 29.72 in 10.0 mi SSW 10.4 mph - N/A   Clear
1:14 AM 19.4 °F 9.5 °F 12.2 °F 74% 29.71 in 10.0 mi SSW 8.1 mph - N/A   Clear
1:34 AM 19.4 °F 8.6 °F 12.2 °F 74% 29.70 in 10.0 mi SSW 9.2 mph - N/A   Clear
1:54 AM 21.2 °F 10.9 °F 14.0 °F 74% 29.68 in 10.0 mi SSW 9.2 mph - N/A   Clear
2:13 AM 23.0 °F 9.6 °F 15.8 °F 74% 29.68 in 10.0 mi SSW 16.1 mph - N/A   Clear
2:34 AM 24.8 °F 11.9 °F 17.6 °F 74% 29.67 in 10.0 mi SSW 16.1 mph 19.6 mph N/A   Clear
2:54 AM 24.8 °F 13.4 °F 17.6 °F 74% 29.66 in 10.0 mi SSW 12.7 mph 18.4 mph N/A   Clear
3:14 AM 24.8 °F 14.0 °F 17.6 °F 74% 29.65 in 10.0 mi SSW 11.5 mph 18.4 mph N/A   Clear
3:34 AM 26.6 °F 16.2 °F 17.6 °F 69% 29.64 in 10.0 mi SSW 11.5 mph - N/A   Clear
3:54 AM 24.8 °F 14.0 °F 17.6 °F 74% 29.62 in 10.0 mi SSW 11.5 mph 16.1 mph N/A   Clear
4:14 AM 24.8 °F 14.6 °F 17.6 °F 74% 29.60 in 10.0 mi SSW 10.4 mph - N/A   Clear
4:34 AM 24.8 °F 15.3 °F 17.6 °F 74% 29.60 in 10.0 mi SSW 9.2 mph - N/A   Clear
4:54 AM 24.8 °F 16.1 °F 17.6 °F 74% 29.60 in 10.0 mi SSW 8.1 mph - N/A   Clear
5:14 AM 26.6 °F 18.2 °F 17.6 °F 69% 29.59 in 10.0 mi SSW 8.1 mph - N/A   Clear
5:34 AM 26.6 °F 18.2 °F 17.6 °F 69% 29.58 in 10.0 mi SSW 8.1 mph - N/A   Clear
5:54 AM 26.6 °F 17.5 °F 17.6 °F 69% 29.58 in 10.0 mi SSW 9.2 mph - N/A   Clear
6:14 AM 24.8 °F 16.1 °F 17.6 °F 74% 29.58 in 10.0 mi SSW 8.1 mph - N/A   Clear
6:33 AM 24.8 °F 19.1 °F 17.6 °F 74% 29.57 in 10.0 mi SSW 4.6 mph - N/A   Clear
6:54 AM 26.6 °F 20.0 °F 17.6 °F 69% 29.57 in 10.0 mi South 5.8 mph - N/A   Clear
7:14 AM 26.6 °F 18.2 °F 17.6 °F 69% 29.57 in 10.0 mi SSW 8.1 mph - N/A   Clear
7:34 AM 26.6 °F 20.0 °F 17.6 °F 69% 29.57 in 10.0 mi SSW 5.8 mph - N/A   Clear
7:54 AM 24.8 °F 17.9 °F 15.8 °F 69% 29.56 in 10.0 mi SSW 5.8 mph - N/A   Clear
8:14 AM 24.8 °F 16.1 °F 15.8 °F 69% 29.57 in 10.0 mi SSW 8.1 mph - N/A   Clear
8:34 AM 26.6 °F 19.1 °F 17.6 °F 69% 29.56 in 10.0 mi SSW 6.9 mph - N/A   Clear
8:54 AM 28.4 °F 20.4 °F 17.6 °F 64% 29.55 in 10.0 mi SSW 8.1 mph - N/A   Clear
9:13 AM 30.2 °F 23.4 °F 17.6 °F 60% 29.55 in 10.0 mi SSW 6.9 mph - N/A   Clear
9:34 AM 30.2 °F 23.4 °F 17.6 °F 60% 29.56 in 10.0 mi SSW 6.9 mph - N/A   Clear
9:54 AM 32.0 °F 25.6 °F 19.4 °F 60% 29.58 in 10.0 mi SSW 6.9 mph - N/A   Clear
10:14 AM 33.8 °F 25.8 °F 19.4 °F 56% 29.59 in 10.0 mi SW 10.4 mph - N/A   Clear
10:34 AM 35.6 °F 29.2 °F 19.4 °F 52% 29.59 in 10.0 mi SW 8.1 mph - N/A   Clear
10:54 AM 37.4 °F 32.1 °F 19.4 °F 48% 29.58 in 10.0 mi SW 6.9 mph - 0.01 in   Clear
11:14 AM 37.4 °F 32.8 °F 21.2 °F 52% 29.55 in 10.0 mi SSW 5.8 mph - N/A   Clear
11:34 AM 37.4 °F 30.3 °F 21.2 °F 52% 29.54 in 10.0 mi WSW 10.4 mph - N/A   Clear
11:54 AM 39.2 °F 35.0 °F 21.2 °F 49% 29.50 in 10.0 mi South 5.8 mph - N/A   Clear
12:14 PM 39.2 °F 35.9 °F 21.2 °F 49% 29.48 in 10.0 mi South 4.6 mph - N/A   Clear
12:34 PM 39.2 °F 34.2 °F 21.2 °F 49% 29.49 in 10.0 mi SW 6.9 mph - N/A   Clear
12:54 PM 41.0 °F 34.7 °F 23.0 °F 49% 29.48 in 10.0 mi WSW 10.4 mph - N/A   Clear
1:13 PM 41.0 °F 34.3 °F 23.0 °F 49% 29.47 in 10.0 mi WSW 11.5 mph 16.1 mph N/A   Clear
1:34 PM 39.2 °F 30.8 °F 23.0 °F 52% 29.47 in 10.0 mi WSW 15.0 mph 18.4 mph N/A   Clear
1:54 PM 41.0 °F 35.2 °F 24.8 °F 53% 29.46 in 10.0 mi WSW 9.2 mph - N/A   Clear
2:14 PM 41.0 °F 34.3 °F 23.0 °F 49% 29.46 in 10.0 mi WSW 11.5 mph - N/A   Clear
2:34 PM 41.0 °F 35.8 °F 24.8 °F 53% 29.46 in 10.0 mi WSW 8.1 mph - N/A   Clear
2:54 PM 39.2 °F 33.6 °F 24.8 °F 56% 29.47 in 10.0 mi WSW 8.1 mph - N/A   Clear
3:14 PM 41.0 °F 34.7 °F 24.8 °F 53% 29.48 in 10.0 mi WSW 10.4 mph - N/A   Clear
3:34 PM 39.2 °F 33.0 °F 24.8 °F 56% 29.48 in 10.0 mi WSW 9.2 mph - N/A   Clear
3:54 PM 39.2 °F 33.6 °F 24.8 °F 56% 29.49 in 10.0 mi WSW 8.1 mph - N/A   Clear
4:14 PM 39.2 °F 33.6 °F 24.8 °F 56% 29.50 in 10.0 mi West 8.1 mph - N/A   Clear
4:34 PM 39.2 °F 34.2 °F 24.8 °F 56% 29.50 in 10.0 mi West 6.9 mph - N/A   Clear
4:54 PM 39.2 °F 33.0 °F 24.8 °F 56% 29.52 in 10.0 mi West 9.2 mph - N/A   Clear
5:14 PM 37.4 °F 31.4 °F 24.8 °F 60% 29.53 in 10.0 mi West 8.1 mph - N/A   Clear
5:34 PM 37.4 °F 29.8 °F 26.6 °F 65% 29.54 in 10.0 mi West 11.5 mph - N/A   Clear
5:54 PM 37.4 °F 29.3 °F 26.6 °F 65% 29.55 in 10.0 mi West 12.7 mph - N/A   Scattered Clouds
6:14 PM 39.2 °F 31.2 °F 26.6 °F 61% 29.57 in 10.0 mi WNW 13.8 mph 21.9 mph N/A   Mostly Cloudy
6:34 PM 37.4 °F 29.3 °F 26.6 °F 65% 29.58 in 10.0 mi WNW 12.7 mph 21.9 mph N/A   Overcast
6:53 PM 37.4 °F 29.8 °F 24.8 °F 60% 29.59 in 10.0 mi WNW 11.5 mph 18.4 mph N/A   Overcast
7:14 PM 37.4 °F 30.3 °F 24.8 °F 60% 29.60 in 10.0 mi WNW 10.4 mph 17.3 mph N/A   Overcast
7:34 PM 37.4 °F 28.5 °F 24.8 °F 60% 29.61 in 10.0 mi WNW 15.0 mph 19.6 mph N/A   Overcast
7:54 PM 37.4 °F 29.8 °F 24.8 °F 60% 29.62 in 10.0 mi WNW 11.5 mph 18.4 mph N/A   Overcast
8:14 PM 35.6 °F 27.1 °F 24.8 °F 65% 29.63 in 10.0 mi WNW 12.7 mph 20.7 mph N/A   Scattered Clouds
8:34 PM 33.8 °F 25.3 °F 23.0 °F 65% 29.64 in 10.0 mi WNW 11.5 mph - N/A   Scattered Clouds
8:54 PM 33.8 °F 25.3 °F 23.0 °F 65% 29.65 in 10.0 mi West 11.5 mph - N/A   Clear
9:14 PM 32.0 °F 24.2 °F 23.0 °F 69% 29.66 in 10.0 mi West 9.2 mph - N/A   Clear
9:34 PM 32.0 °F 22.5 °F 23.0 °F 69% 29.67 in 10.0 mi West 12.7 mph - N/A   Clear
9:54 PM 32.0 °F 23.0 °F 23.0 °F 69% 29.68 in 10.0 mi West 11.5 mph - N/A   Scattered Clouds
10:14 PM 32.0 °F 24.2 °F 23.0 °F 69% 29.70 in 10.0 mi West 9.2 mph - N/A   Mostly Cloudy
10:33 PM 32.0 °F 24.8 °F 23.0 °F 69% 29.70 in 10.0 mi West 8.1 mph - N/A   Overcast
10:54 PM 32.0 °F 24.8 °F 23.0 °F 69% 29.71 in 10.0 mi WNW 8.1 mph - N/A   Overcast
11:14 PM 32.0 °F 24.8 °F 23.0 °F 69% 29.72 in 10.0 mi NW 8.1 mph - N/A   Overcast
11:34 PM 30.2 °F 24.3 °F 23.0 °F 75% 29.72 in 10.0 mi WNW 5.8 mph - N/A   Mostly Cloudy
11:54 PM 28.4 °F 21.2 °F 21.2 °F 74% 29.73 in 10.0 mi West 6.9 mph - N/A   Scattered Clouds